Location: Libas
(9.8833°N, 125.9833°E)
Time: 20:24:18
(UTC+00:00)

Meteor 1-31 Rocket - Pass Details

Date: 27 October 2020
Orbit: 521 x 546 km, 97.6° (Epoch: 26 November)

Event Time Altitude Azimuth Distance (km) Brightness Sun altitude
Rises 20:28:53 0° 358° (N) 2,696 6.2 -14.5°
Reaches altitude 10° 20:31:06 10° 350° (N) 1,802 5.2 -14.0°
Maximum altitude 20:34:42 36° 283° (WNW) 862 3.3 -13.1°
Drops below altitude 10° 20:38:17 10° 215° (SW) 1,793 5.2 -12.3°
Sets 20:40:30 0° 206° (SSW) 2,680 6.2 -11.7°
